User: anonymous   Login
Location: Cul de Sac
(18.0387°N, 63.0654°W)
Time: 11:46:49
(UTC+00:00)
Language:

QB50P2 - Orbit

View from above orbital plane
View from above orbital plane
View from above satellite
View from above satellite

Ground track
Ground track

The orbit data is extracted from the following two-line orbital elements,

1 40032U 14033Y   21263.07068820  .00000390  00000-0  47403-4 0  9999
2 40032  97.9163 190.3077 0010645 219.7402 140.3036 14.89039050393892
Epoch (UTC): 20 September 2021 01:41:47
Eccentricity: 0.0010645
inclination: 97.9163°
perigee height: 593 km
apogee height: 608 km
right ascension of ascending node: 190.3077°
argument of perigee: 219.7402°
revolutions per day: 14.89039050
mean anomaly at epoch: 140.3036°
orbit number at epoch: 39389

The dashed part of the orbit path shows where the satellite is in the earth's shadow,  

DLR